Location: Charlottesville
(38.0290°N, 78.4770°W)
Time: 21:42:50
(UTC-04:00)

Tiangong 2 - Pass Details

Date: 11 October 2017
Orbit: 388 x 392 km, 42.8° (Epoch: 16 October)

Event Time Altitude Azimuth Distance (km) Brightness Sun altitude
Exits shadow 06:11:07 28° 289° (WNW) 759 2.0 -14.1°
Maximum altitude 06:12:23 46° 346° (NNW) 533 1.6 -13.9°
Drops below altitude 10° 06:15:30 10° 62° (ENE) 1,423 5.0 -13.3°
Sets 06:17:38 0° 68° (ENE) 2,280 6.4 -12.9°
